| time (UTC) | temp F | wind direction | speed MPH | gust MPH | rain 1hr in | rain 24hr in | rain mn in | humidity % | barometer mb |
| 20260902034527 | 58 | 57 | 2.0 | 6.0 | 0.00 | 1.04 | 1.04 | 1 | 1019.0 |
| 20260902033118 | 58 | 61 | 2.0 | 5.0 | 0.00 | 1.04 | 1.04 | 1 | 1018.7 |
| 20260902031538 | 58 | 67 | 4.0 | 7.0 | 0.00 | 1.04 | 1.04 | 1 | 1018.7 |
| 20260902030130 | 58 | 49 | 5.0 | 11.0 | 0.00 | 1.04 | 1.04 | 1 | 1018.2 |
| 20260902024545 | 58 | 65 | 2.0 | 6.0 | 0.00 | 1.04 | 1.04 | 1 | 1018.6 |
| 20260902023006 | 58 | 73 | 1.0 | 5.0 | 0.00 | 1.04 | 1.04 | 1 | 1018.6 |
| 20260902021554 | 58 | 73 | 2.0 | 6.0 | 0.00 | 1.04 | 1.04 | 1 | 1018.6 |
| 20260902020016 | 58 | 74 | 4.0 | 7.0 | 0.00 | 1.04 | 1.04 | 1 | 1018.7 |
| 20260902014609 | 57 | 64 | 2.0 | 6.0 | 0.00 | 1.04 | 1.04 | 1 | 1018.5 |
| 20260902013027 | 58 | 64 | 2.0 | 4.0 | 0.00 | 1.04 | 1.04 | 1 | 1018.4 |
| 20260902010034 | 58 | 77 | 2.0 | 8.0 | 0.00 | 1.04 | 1.04 | 1 | 1018.3 |
| 20260902004621 | 58 | 76 | 4.0 | 9.0 | 0.00 | 1.04 | 1.04 | 1 | 1017.9 |
| 20260902003041 | 58 | 80 | 3.0 | 8.0 | 0.00 | 1.04 | 1.04 | 1 | 1017.8 |
| 20260902001638 | 58 | 61 | 1.0 | 4.0 | 0.00 | 1.04 | 1.04 | 1 | 1017.5 |
| 20260902000049 | 58 | 60 | 1.0 | 5.0 | 0.00 | 1.04 | 1.04 | 1 | 1017.5 |
| 20260901234633 | 58 | 81 | 1.0 | 5.0 | 0.00 | 1.04 | 1.04 | 1 | 1017.2 |
| 20260901233042 | 59 | 56 | 3.0 | 6.0 | 0.00 | 1.04 | 1.04 | 1 | 1017.4 |
| 20260901231630 | 59 | 65 | 2.0 | 4.0 | 0.00 | 1.04 | 1.04 | 1 | 1017.7 |
| 20260901230047 | 59 | 63 | 2.0 | 4.0 | 0.00 | 1.04 | 1.04 | 1 | 1017.5 |
| 20260901224635 | 60 | 66 | 2.0 | 5.0 | 0.00 | 1.04 | 1.04 | 1 | 1017.2 |
| 20260901223057 | 60 | 62 | 1.0 | 4.0 | 0.00 | 1.04 | 1.04 | 1 | 1017.2 |
| 20260901221513 | 60 | 69 | 3.0 | 6.0 | 0.00 | 1.04 | 1.04 | 1 | 1017.1 |
| 20260901214533 | 61 | 85 | 4.0 | 11.0 | 0.00 | 1.04 | 1.04 | 1 | 1016.8 |
| 20260901213125 | 61 | 64 | 4.0 | 10.0 | 0.00 | 1.04 | 1.04 | 1 | 1016.9 |
| 20260901211531 | 62 | 98 | 6.0 | 12.0 | 0.00 | 1.04 | 1.04 | 1 | 1016.6 |
| 20260901210126 | 63 | 59 | 4.0 | 10.0 | 0.00 | 1.04 | 1.04 | 1 | 1016.4 |
| 20260901204545 | 63 | 59 | 4.0 | 13.0 | 0.00 | 1.04 | 1.04 | 1 | 1016.2 |
| 20260901203004 | 64 | 80 | 6.0 | 13.0 | 0.00 | 1.04 | 1.04 | 1 | 1016.2 |
| 20260901201551 | 64 | 69 | 4.0 | 12.0 | 0.01 | 1.04 | 1.04 | 1 | 1016.0 |
| 20260901200010 | 65 | 70 | 6.0 | 11.0 | 0.01 | 1.04 | 1.04 | 1 | 1015.9 |
| 20260901194611 | 65 | 71 | 7.0 | 11.0 | 0.02 | 1.04 | 1.04 | 1 | 1015.8 |
| 20260901193033 | 65 | 78 | 4.0 | 9.0 | 0.02 | 1.04 | 1.04 | 1 | 1015.7 |
| 20260901191622 | 65 | 80 | 3.0 | 9.0 | 0.01 | 1.03 | 1.03 | 1 | 1015.7 |
| 20260901190050 | 65 | 77 | 5.0 | 9.0 | 0.01 | 1.03 | 1.03 | 1 | 1015.7 |
| 20260901183109 | 65 | 74 | 4.0 | 7.0 | 0.05 | 1.02 | 1.02 | 1 | 1015.8 |
| 20260901181515 | 65 | 65 | 3.0 | 8.0 | 0.08 | 1.02 | 1.02 | 1 | 1015.6 |
| 20260901180111 | 65 | 73 | 3.0 | 8.0 | 0.08 | 1.02 | 1.02 | 1 | 1015.5 |
| 20260901174522 | 65 | 66 | 3.0 | 6.0 | 0.10 | 1.00 | 1.00 | 1 | 1015.4 |
| 20260901173112 | 65 | 69 | 2.0 | 5.0 | 0.16 | 0.97 | 0.97 | 1 | 1015.4 |
| 20260901171528 | 65 | 65 | 3.0 | 6.0 | 0.24 | 0.94 | 0.94 | 1 | 1015.3 |
| 20260901170118 | 65 | 74 | 1.0 | 6.0 | 0.24 | 0.94 | 0.94 | 1 | 1015.2 |
| 20260901164537 | 65 | 66 | 3.0 | 6.0 | 0.19 | 0.89 | 0.89 | 1 | 1015.2 |
| 20260901163134 | 65 | 61 | 1.0 | 4.0 | 0.11 | 0.81 | 0.81 | 1 | 1015.4 |
| 20260901161555 | 65 | 59 | 0.0 | 2.0 | 0.00 | 0.70 | 0.70 | 1 | 1016.5 |
| 20260901160133 | 65 | 59 | 0.0 | 1.0 | 0.00 | 0.70 | 0.70 | 1 | 1015.2 |
| 20260901154619 | 65 | 60 | 1.0 | 3.0 | 0.00 | 0.70 | 0.70 | 1 | 1015.4 |
| 20260901151616 | 65 | 57 | 1.0 | 5.0 | 0.00 | 0.70 | 0.70 | 1 | 1015.4 |
| 20260901150034 | 64 | 37 | 1.0 | 4.0 | 0.01 | 0.70 | 0.70 | 1 | 1015.7 |
| 20260901144624 | 64 | 66 | 2.0 | 5.0 | 0.04 | 0.70 | 0.70 | 1 | 1015.9 |
| 20260901143040 | 64 | 60 | 0.0 | 4.0 | 0.04 | 0.70 | 0.70 | 1 | 1015.9 |
| 20260901141631 | 64 | 60 | 2.0 | 5.0 | 0.04 | 0.70 | 0.70 | 1 | 1015.9 |
| 20260901140043 | 64 | 60 | 0.0 | 4.0 | 0.05 | 0.69 | 0.69 | 1 | 1015.9 |
| 20260901134626 | 64 | 67 | 4.0 | 7.0 | 0.07 | 0.67 | 0.66 | 1 | 1016.3 |
| 20260901133047 | 64 | 53 | 0.0 | 4.0 | 0.13 | 0.67 | 0.66 | 1 | 1016.1 |
| 20260901131629 | 64 | 360 | 6.0 | 9.0 | 0.17 | 0.67 | 0.66 | 1 | 1015.9 |
| 20260901130048 | 64 | 65 | 5.0 | 9.0 | 0.15 | 0.65 | 0.64 | 1 | 1016.1 |
| 20260901124508 | 65 | 65 | 5.0 | 9.0 | 0.10 | 0.59 | 0.57 | 1 | 1016.1 |
| 20260901123055 | 65 | 18 | 0.0 | 0.0 | 0.08 | 0.54 | 0.53 | 1 | 1016.3 |
| 20260901121516 | 65 | 18 | 0.0 | 0.0 | 0.10 | 0.50 | 0.49 | 1 | 1015.9 |
| 20260901120114 | 64 | 18 | 0.0 | 0.0 | 0.21 | 0.50 | 0.49 | 1 | 1015.9 |
| 20260901114528 | 64 | 18 | 0.0 | 0.0 | 0.31 | 0.49 | 0.48 | 1 | 1016.0 |
| 20260901113122 | 65 | 18 | 0.0 | 0.0 | 0.37 | 0.46 | 0.45 | 1 | 1015.8 |
| 20260901111550 | 64 | 267 | 0.0 | 0.0 | 0.33 | 0.40 | 0.39 | 1 | 1015.7 |
| 20260901110002 | 64 | 360 | 0.0 | 0.0 | 0.22 | 0.28 | 0.27 | 1 | 1016.2 |
| 20260901104557 | 64 | 268 | 0.0 | 0.0 | 0.13 | 0.18 | 0.17 | 1 | 1016.0 |
| 20260901103012 | 64 | 267 | 0.0 | 0.0 | 0.04 | 0.09 | 0.08 | 1 | 1015.8 |
| 20260901101609 | 64 | 267 | 0.0 | 0.0 | 0.03 | 0.07 | 0.06 | 1 | 1015.6 |
| 20260901100025 | 64 | 266 | 0.0 | 0.0 | 0.02 | 0.06 | 0.05 | 1 | 1015.5 |
| 20260901094622 | 64 | 266 | 0.0 | 0.0 | 0.01 | 0.05 | 0.04 | 1 | 1015.5 |
| 20260901093039 | 64 | 266 | 0.0 | 0.0 | 0.01 | 0.05 | 0.04 | 1 | 1015.8 |
| 20260901091630 | 64 | 266 | 0.0 | 0.0 | 0.01 | 0.04 | 0.03 | 1 | 1015.8 |
| 20260901084626 | 64 | 266 | 0.0 | 0.0 | 0.01 | 0.04 | 0.03 | 1 | 1016.1 |
| 20260901083046 | 64 | 266 | 0.0 | 0.0 | 0.01 | 0.04 | 0.03 | 1 | 1016.2 |
| 20260901081510 | 64 | 266 | 0.0 | 0.0 | 0.00 | 0.03 | 0.02 | 1 | 1016.3 |
| 20260901080100 | 64 | 266 | 0.0 | 0.0 | 0.01 | 0.03 | 0.02 | 1 | 1016.4 |
| 20260901074510 | 64 | 266 | 0.0 | 0.0 | 0.01 | 0.03 | 0.02 | 1 | 1016.6 |
| 20260901073109 | 64 | 266 | 0.0 | 0.0 | 0.02 | 0.03 | 0.02 | 1 | 1016.5 |
| 20260901071534 | 64 | 266 | 0.0 | 0.0 | 0.02 | 0.03 | 0.02 | 1 | 1016.5 |
| 20260901070115 | 64 | 266 | 0.0 | 0.0 | 0.01 | 0.02 | 0.01 | 1 | 1016.7 |
| 20260901064540 | 64 | 266 | 0.0 | 0.0 | 0.01 | 0.02 | 0.01 | 1 | 1016.9 |
| 20260901063121 | 64 | 266 | 0.0 | 0.0 | 0.00 | 0.01 | 0.00 | 1 | 1017.2 |
| 20260901061544 | 64 | 266 | 0.0 | 0.0 | 0.00 | 0.01 | 0.00 | 1 | 1017.2 |
| 20260901060132 | 64 | 266 | 0.0 | 0.0 | 0.00 | 0.01 | 0.00 | 1 | 1017.0 |
| 20260901053014 | 64 | 266 | 0.0 | 0.0 | 0.00 | 0.01 | 0.00 | 1 | 1017.4 |
| 20260901051607 | 64 | 266 | 0.0 | 0.0 | 0.00 | 0.01 | 0.00 | 1 | 1017.7 |
| 20260901050024 | 64 | 266 | 0.0 | 0.0 | 0.00 | 0.01 | 0.00 | 1 | 1017.7 |
| 20260901044617 | 64 | 266 | 0.0 | 0.0 | 0.00 | 0.01 | 0.00 | 1 | 1017.7 |
| 20260901043037 | 64 | 266 | 0.0 | 0.0 | 0.00 | 0.01 | 0.00 | 1 | 1017.7 |
| 20260901041629 | 64 | 266 | 0.0 | 0.0 | 0.00 | 0.01 | 0.00 | 1 | 1017.7 |
| 20260901040052 | 64 | 266 | 0.0 | 0.0 | 0.00 | 0.01 | 0.00 | 1 | 1017.8 |